Date,TemperatureHighF,TemperatureAvgF,TemperatureLowF,DewpointHighF,DewpointAvgF,DewpointLowF,HumidityHigh,HumidityAvg,HumidityLow,PressureMaxIn,PressureMinIn,WindSpeedMaxMPH,WindSpeedAvgMPH,GustSpeedMaxMPH,PrecipitationSumIn
2013-4-1,84,74,65,71,65,61,95,75,48,30.04,29.92,11,2,18,0.00
2013-4-2,74,70,65,71,66,63,94,87,73,30.07,29.98,15,6,15,0.00
2013-4-3,77,75,74,73,70,69,88,85,82,30.06,29.97,17,11,22,0.00
2013-4-4,82,71,69,73,62,-100,95,83,71,30.04,29.90,17,-37,23,0.48
2013-4-5,76,70,67,69,66,64,94,88,78,29.96,29.78,20,6,26,0.10
2013-4-6,73,67,57,66,62,55,93,84,69,30.10,29.92,24,10,26,0.00
2013-4-7,74,73,71,66,64,62,79,74,68,30.15,30.05,15,9,19,0.00
2013-4-8,75,73,65,69,65,61,89,77,67,30.14,30.05,10,5,13,0.00
2013-4-9,76,75,74,69,68,67,84,80,76,30.17,30.05,16,11,18,0.00
2013-4-10,78,76,74,74,71,68,91,86,80,30.10,30.00,18,11,22,0.00
2013-4-11,78,77,76,75,73,72,91,88,84,30.01,29.87,28,17,29,0.00
2013-4-12,87,79,76,76,74,70,92,84,65,29.92,29.83,21,6,24,0.00
2013-4-13,86,76,73,77,73,69,95,89,58,29.96,29.87,10,3,14,0.05
2013-4-14,81,78,75,76,75,73,94,90,83,29.96,29.86,26,11,30,0.00
2013-4-15,80,75,68,76,71,65,92,88,82,30.05,29.93,16,5,27,0.49
2013-4-16,79,77,73,75,73,70,94,88,81,30.13,30.02,14,8,16,0.00
2013-4-17,77,76,76,71,69,68,84,78,74,30.12,30.03,11,7,14,0.00
2013-4-18,80,79,76,76,73,69,87,82,77,30.05,29.97,21,12,24,0.00
2013-4-19,82,80,78,77,74,72,88,84,76,30.03,29.93,26,15,31,0.00
2013-4-20,82,75,72,76,72,69,93,90,73,30.09,29.96,21,8,26,0.06
2013-4-21,78,75,69,74,71,68,95,89,82,30.09,29.99,16,8,22,0.16
2013-4-22,76,74,71,72,70,69,95,89,78,30.04,29.95,21,6,25,0.06
2013-4-23,76,76,74,71,68,65,90,77,70,30.09,29.96,19,14,23,0.00
2013-4-24,77,76,74,68,65,63,74,70,66,30.13,30.03,15,7,16,0.00
2013-4-25,77,76,75,67,66,64,74,70,66,30.19,30.08,11,5,14,0.00
2013-4-26,77,75,66,72,68,62,90,79,71,30.22,30.12,10,5,13,0.00
2013-4-27,77,76,76,70,68,66,79,75,69,30.20,30.10,16,10,19,0.00
2013-4-28,77,76,75,70,66,63,79,72,66,30.12,30.00,17,12,22,0.00
2013-4-29,78,77,74,72,70,67,89,79,74,30.03,29.92,23,11,26,0.00
2013-4-30,78,74,70,73,71,68,95,91,80,29.99,29.92,16,4,22,0.16